AAL1217 MWCR-KMIA

Flight info

Callsign AAL1217
Flight time 1h 9m
Altitude 38000
Route XOPLI UG448 KELNI/N0468F400 UG448 IKBIX SNDBR3
Aircraft B772/H-SDE2E3FGHIJ5LORVWXY/LB1D1

Departure

Time 2026-04-21 21:30
Airport Owen Roberts International Airport (MWCR)

Arrival

Time 2026-04-21 22:39
Airport Miami International Airport (KMIA)
Time Latitude Longitude Altitude Speed Heading
2026-04-21 21:04 19.29504 -81.35687 20 ft 0 kts 346°
2026-04-21 21:21 19.29500 -81.35686 20 ft 0 kts 346°
2026-04-21 21:22 19.29486 -81.35683 25 ft 3 kts 341°
2026-04-21 21:22 19.29470 -81.35674 25 ft 3 kts 301°
2026-04-21 21:22 19.29466 -81.35656 25 ft 3 kts 258°
2026-04-21 21:22 19.29471 -81.35637 25 ft 2 kts 256°
2026-04-21 21:23 19.29472 -81.35630 24 ft 0 kts 257°
2026-04-21 21:26 19.29472 -81.35633 23 ft 4 kts 257°
2026-04-21 21:26 19.29460 -81.35685 20 ft 10 kts 257°
2026-04-21 21:26 19.29445 -81.35755 20 ft 10 kts 257°
2026-04-21 21:27 19.29407 -81.35809 20 ft 10 kts 196°
2026-04-21 21:27 19.29342 -81.35805 20 ft 9 kts 170°
2026-04-21 21:27 19.29275 -81.35828 20 ft 13 kts 235°
2026-04-21 21:27 19.29237 -81.35959 20 ft 22 kts 256°
2026-04-21 21:28 19.29195 -81.36133 22 ft 26 kts 256°
2026-04-21 21:28 19.29151 -81.36318 23 ft 26 kts 256°
2026-04-21 21:28 19.29063 -81.36692 19 ft 26 kts 256°
2026-04-21 21:29 19.29025 -81.36873 20 ft 23 kts 273°
2026-04-21 21:29 19.29065 -81.36962 21 ft 12 kts 277°
2026-04-21 21:29 19.29027 -81.36997 20 ft 8 kts 177°
2026-04-21 21:29 19.29004 -81.36949 20 ft 7 kts 85°
2026-04-21 21:30 19.29005 -81.36943 20 ft 0 kts 80°
2026-04-21 21:30 19.29035 -81.36804 22 ft 57 kts 76°
2026-04-21 21:30 19.29227 -81.35992 43 ft 163 kts 74°
2026-04-21 21:30 19.29545 -81.34711 974 ft 190 kts 72°
2026-04-21 21:31 19.30957 -81.30652 3831 ft 215 kts 44°
2026-04-21 21:31 19.32288 -81.29815 4382 ft 233 kts 17°
2026-04-21 21:32 19.33922 -81.29665 5005 ft 246 kts 359°
2026-04-21 21:32 19.35694 -81.30039 5422 ft 263 kts 352°
2026-04-21 21:32 19.37519 -81.30217 6192 ft 270 kts
2026-04-21 21:32 19.39408 -81.30229 7119 ft 274 kts
2026-04-21 21:33 19.41322 -81.30221 8053 ft 277 kts
2026-04-21 21:33 19.43266 -81.30222 8933 ft 282 kts
2026-04-21 21:33 19.45246 -81.30236 9807 ft 288 kts
2026-04-21 21:33 19.47299 -81.30264 10321 ft 307 kts 360°
2026-04-21 21:34 19.49520 -81.30306 10763 ft 327 kts 359°
2026-04-21 21:34 19.51840 -81.30359 11541 ft 337 kts 359°
2026-04-21 21:34 19.54199 -81.30419 12453 ft 342 kts 358°
2026-04-21 21:34 19.56583 -81.30486 13476 ft 345 kts 358°
2026-04-21 21:35 19.58991 -81.30556 14389 ft 349 kts 357°
2026-04-21 21:35 19.61443 -81.30630 15278 ft 354 kts 357°
2026-04-21 21:35 19.63920 -81.30706 16183 ft 358 kts 356°
2026-04-21 21:35 19.66425 -81.30783 17053 ft 363 kts 356°
2026-04-21 21:36 19.68977 -81.30863 17940 ft 369 kts 356°
2026-04-21 21:36 19.71548 -81.30942 18772 ft 373 kts 356°
2026-04-21 21:36 19.74156 -81.31023 19546 ft 377 kts 355°
2026-04-21 21:36 19.76798 -81.31105 20318 ft 382 kts 355°
2026-04-21 21:37 19.79465 -81.31188 21101 ft 386 kts 355°
2026-04-21 21:37 19.82167 -81.31272 21859 ft 390 kts 355°
2026-04-21 21:37 19.84895 -81.31358 22613 ft 395 kts 355°
2026-04-21 21:37 19.87658 -81.31444 23356 ft 399 kts 354°
2026-04-21 21:38 19.90448 -81.31530 24010 ft 404 kts 354°
2026-04-21 21:38 19.93262 -81.31618 24626 ft 409 kts 354°
2026-04-21 21:38 19.96126 -81.31708 25246 ft 413 kts 354°
2026-04-21 21:38 19.99015 -81.31799 25863 ft 418 kts 353°
2026-04-21 21:39 20.01869 -81.31888 26451 ft 422 kts 353°
2026-04-21 21:39 20.04812 -81.31979 27084 ft 425 kts 353°
2026-04-21 21:39 20.07783 -81.32070 27699 ft 428 kts 353°
2026-04-21 21:39 20.10760 -81.32162 28274 ft 432 kts 352°
2026-04-21 21:40 20.13785 -81.32256 28781 ft 436 kts 352°
2026-04-21 21:40 20.16832 -81.32352 29311 ft 440 kts 352°
2026-04-21 21:40 20.19901 -81.32448 29834 ft 444 kts 352°
2026-04-21 21:40 20.23000 -81.32545 30297 ft 447 kts 352°
2026-04-21 21:41 20.26125 -81.32641 30708 ft 450 kts 352°
2026-04-21 21:41 20.29268 -81.32741 31063 ft 455 kts 352°
2026-04-21 21:41 20.32446 -81.32841 31446 ft 458 kts 352°
2026-04-21 21:41 20.35591 -81.32939 31823 ft 461 kts 352°
2026-04-21 21:42 20.38804 -81.33039 32204 ft 463 kts 352°
2026-04-21 21:42 20.42035 -81.33138 32569 ft 465 kts 351°
2026-04-21 21:42 20.45325 -81.33241 32908 ft 468 kts 351°
2026-04-21 21:42 20.48556 -81.33342 33214 ft 471 kts 351°
2026-04-21 21:43 20.51845 -81.33446 33544 ft 473 kts 351°
2026-04-21 21:43 20.55178 -81.33549 33870 ft 475 kts 351°
2026-04-21 21:43 20.58484 -81.33652 34246 ft 475 kts 351°
2026-04-21 21:43 20.61782 -81.33753 34671 ft 473 kts 351°
2026-04-21 21:44 20.65031 -81.33852 35099 ft 472 kts 351°
2026-04-21 21:44 20.68305 -81.33952 35485 ft 471 kts 351°
2026-04-21 21:44 20.71579 -81.34055 35811 ft 471 kts 351°
2026-04-21 21:44 20.74853 -81.34157 36219 ft 469 kts 351°
2026-04-21 21:45 20.78102 -81.34258 36690 ft 465 kts 351°
2026-04-21 21:45 20.81342 -81.34359 36932 ft 467 kts 351°
2026-04-21 21:45 20.84590 -81.34464 36902 ft 467 kts 351°
2026-04-21 21:46 20.91026 -81.34664 36905 ft 459 kts 351°
2026-04-21 21:46 20.97402 -81.34860 36945 ft 459 kts 355°
2026-04-21 21:46 20.99467 -81.33698 34000 ft 541 kts 56°
2026-04-21 21:47 21.01010 -81.30834 33411 ft 542 kts 56°
2026-04-21 21:47 21.04721 -81.23942 33221 ft 536 kts 56°
2026-04-21 21:48 21.08484 -81.16969 33103 ft 544 kts 56°
2026-04-21 21:48 21.12288 -81.09935 33269 ft 545 kts 56°
2026-04-21 21:48 21.14423 -81.06652 33299 ft 533 kts 40°
2026-04-21 21:49 21.17284 -81.04239 33349 ft 517 kts 21°
2026-04-21 21:49 21.20584 -81.02956 33506 ft 496 kts
2026-04-21 21:49 21.23943 -81.02625 33976 ft 478 kts 353°
2026-04-21 21:49 21.27231 -81.02771 34233 ft 469 kts 347°
2026-04-21 21:50 21.30405 -81.03395 34303 ft 461 kts 340°
2026-04-21 21:50 21.36578 -81.05149 34434 ft 459 kts 334°
2026-04-21 21:50 21.39534 -81.06394 34557 ft 455 kts 330°
2026-04-21 21:51 21.42445 -81.07710 34742 ft 454 kts 332°
2026-04-21 21:51 21.45403 -81.08917 34932 ft 456 kts 334°
2026-04-21 21:51 21.48420 -81.09972 35114 ft 457 kts 336°
2026-04-21 21:51 21.51485 -81.10900 35281 ft 458 kts 338°
2026-04-21 21:52 21.54578 -81.11744 35441 ft 458 kts 339°
2026-04-21 21:52 21.57677 -81.12541 35626 ft 459 kts 339°
2026-04-21 21:52 21.60785 -81.13322 35763 ft 458 kts 340°
2026-04-21 21:52 21.63888 -81.14099 35922 ft 457 kts 339°
2026-04-21 21:53 21.66981 -81.14878 36095 ft 456 kts 339°
2026-04-21 21:53 21.70072 -81.15662 36249 ft 455 kts 339°
2026-04-21 21:53 21.73150 -81.16450 36392 ft 455 kts 339°
2026-04-21 21:53 21.76226 -81.17240 36539 ft 454 kts 339°
2026-04-21 21:54 21.79290 -81.18029 36688 ft 453 kts 339°
2026-04-21 21:54 21.82353 -81.18819 36824 ft 452 kts 339°
2026-04-21 21:54 21.85410 -81.19608 36956 ft 452 kts 339°
2026-04-21 21:54 21.88463 -81.20396 37086 ft 451 kts 339°
2026-04-21 21:55 21.91508 -81.21181 37329 ft 448 kts 338°
2026-04-21 21:55 21.94526 -81.21957 37592 ft 444 kts 338°
2026-04-21 21:55 21.97525 -81.22731 37709 ft 444 kts 338°
2026-04-21 21:56 22.03536 -81.24288 37789 ft 445 kts 338°
2026-04-21 21:56 22.09553 -81.25846 37969 ft 444 kts 338°
2026-04-21 21:57 22.15568 -81.27403 38075 ft 445 kts 338°
2026-04-21 21:57 22.21591 -81.28964 38067 ft 445 kts 338°
2026-04-21 21:58 22.27607 -81.30523 38085 ft 445 kts 338°
2026-04-21 21:58 22.33626 -81.32085 38083 ft 445 kts 338°
2026-04-21 21:59 22.39645 -81.33649 38088 ft 445 kts 338°
2026-04-21 21:59 22.45658 -81.35212 38077 ft 444 kts 338°
2026-04-21 22:00 22.51664 -81.36776 38083 ft 444 kts 338°
2026-04-21 22:00 22.57663 -81.38338 38099 ft 444 kts 338°
2026-04-21 22:01 22.63783 -81.39547 38095 ft 454 kts 346°
2026-04-21 22:01 22.70164 -81.39617 38091 ft 466 kts 356°
2026-04-21 22:02 22.76628 -81.38839 38117 ft 468 kts 358°
2026-04-21 22:02 22.83088 -81.37973 38120 ft 468 kts 357°
2026-04-21 22:03 22.89512 -81.37141 38142 ft 468 kts 357°
2026-04-21 22:03 22.95977 -81.36342 38137 ft 467 kts 356°
2026-04-21 22:04 23.02435 -81.35551 38137 ft 467 kts 356°
2026-04-21 22:04 23.08891 -81.34749 38124 ft 467 kts 356°
2026-04-21 22:05 23.15350 -81.33935 38133 ft 467 kts 357°
2026-04-21 22:05 23.21805 -81.33114 38123 ft 467 kts 357°
2026-04-21 22:06 23.28265 -81.32307 38127 ft 467 kts 356°
2026-04-21 22:06 23.34729 -81.31503 37976 ft 470 kts 357°
2026-04-21 22:06 23.37979 -81.31099 37698 ft 469 kts 357°
2026-04-21 22:07 23.41213 -81.30637 37427 ft 470 kts
2026-04-21 22:07 23.44419 -81.29986 37178 ft 467 kts
2026-04-21 22:07 23.47602 -81.29263 37087 ft 469 kts
2026-04-21 22:07 23.50811 -81.28515 36873 ft 475 kts
2026-04-21 22:08 23.54047 -81.27761 36636 ft 475 kts
2026-04-21 22:08 23.57270 -81.27014 36379 ft 471 kts
2026-04-21 22:08 23.60466 -81.26281 36130 ft 468 kts
2026-04-21 22:08 23.63641 -81.25562 35885 ft 465 kts
2026-04-21 22:09 23.66798 -81.24855 35643 ft 462 kts
2026-04-21 22:09 23.69938 -81.24154 35400 ft 459 kts
2026-04-21 22:09 23.73083 -81.23458 35065 ft 467 kts
2026-04-21 22:09 23.76305 -81.22754 34698 ft 479 kts
2026-04-21 22:10 23.79601 -81.22031 34402 ft 482 kts
2026-04-21 22:10 23.82845 -81.21301 34378 ft 469 kts
2026-04-21 22:10 23.85998 -81.20583 34324 ft 458 kts
2026-04-21 22:10 23.89084 -81.19881 34259 ft 447 kts
2026-04-21 22:11 23.92093 -81.19200 34181 ft 437 kts
2026-04-21 22:11 23.97918 -81.17892 33902 ft 419 kts
2026-04-21 22:11 24.00759 -81.17259 33565 ft 415 kts
2026-04-21 22:12 24.03580 -81.16633 33167 ft 413 kts
2026-04-21 22:12 24.06392 -81.16009 32770 ft 411 kts
2026-04-21 22:12 24.09180 -81.15387 32424 ft 408 kts
2026-04-21 22:12 24.11947 -81.14768 32084 ft 404 kts
2026-04-21 22:13 24.14690 -81.14153 31790 ft 401 kts
2026-04-21 22:13 24.17403 -81.13544 31485 ft 395 kts
2026-04-21 22:13 24.20078 -81.12942 31146 ft 391 kts
2026-04-21 22:13 24.22731 -81.12346 30788 ft 387 kts
2026-04-21 22:14 24.25357 -81.11756 30424 ft 384 kts
2026-04-21 22:14 24.27931 -81.11178 30029 ft 381 kts
2026-04-21 22:14 24.30515 -81.10597 29586 ft 377 kts
2026-04-21 22:14 24.33073 -81.10020 29175 ft 373 kts
2026-04-21 22:15 24.35639 -81.09442 28778 ft 369 kts
2026-04-21 22:15 24.38103 -81.08887 28400 ft 365 kts
2026-04-21 22:15 24.40574 -81.08330 28014 ft 361 kts
2026-04-21 22:15 24.43015 -81.07779 27641 ft 356 kts
2026-04-21 22:16 24.45433 -81.07234 27269 ft 353 kts
2026-04-21 22:16 24.47820 -81.06695 26896 ft 349 kts
2026-04-21 22:16 24.50192 -81.06161 26550 ft 348 kts
2026-04-21 22:16 24.52572 -81.05626 26201 ft 351 kts
2026-04-21 22:17 24.55004 -81.05083 25843 ft 362 kts
2026-04-21 22:17 24.57502 -81.04524 25436 ft 370 kts
2026-04-21 22:17 24.60022 -81.03955 25039 ft 369 kts
2026-04-21 22:17 24.62528 -81.03386 24660 ft 367 kts
2026-04-21 22:18 24.65027 -81.02817 24273 ft 365 kts
2026-04-21 22:18 24.67545 -81.02245 23873 ft 364 kts
2026-04-21 22:18 24.70017 -81.01684 23438 ft 362 kts
2026-04-21 22:18 24.72477 -81.01125 23022 ft 360 kts
2026-04-21 22:19 24.74920 -81.00570 22640 ft 357 kts
2026-04-21 22:19 24.77341 -81.00021 22256 ft 354 kts
2026-04-21 22:19 24.79745 -80.99475 21890 ft 351 kts
2026-04-21 22:19 24.82130 -80.98934 21502 ft 349 kts
2026-04-21 22:20 24.84498 -80.98396 21136 ft 346 kts
2026-04-21 22:20 24.86844 -80.97863 20760 ft 344 kts
2026-04-21 22:20 24.89148 -80.97340 20402 ft 341 kts
2026-04-21 22:20 24.91496 -80.96808 20026 ft 339 kts
2026-04-21 22:21 24.93766 -80.96291 19659 ft 337 kts
2026-04-21 22:21 24.96058 -80.95770 19305 ft 336 kts
2026-04-21 22:21 24.98342 -80.95251 18930 ft 334 kts
2026-04-21 22:21 25.00610 -80.94733 18566 ft 333 kts
2026-04-21 22:22 25.02880 -80.94215 18076 ft 335 kts
2026-04-21 22:22 25.05170 -80.93696 17582 ft 336 kts
2026-04-21 22:22 25.07453 -80.93178 17186 ft 334 kts
2026-04-21 22:22 25.09723 -80.92661 16804 ft 332 kts
2026-04-21 22:23 25.11981 -80.92144 16426 ft 330 kts
2026-04-21 22:23 25.14227 -80.91632 16055 ft 329 kts
2026-04-21 22:23 25.16461 -80.91121 15686 ft 327 kts
2026-04-21 22:23 25.18683 -80.90611 15325 ft 325 kts
2026-04-21 22:24 25.20888 -80.90105 14961 ft 323 kts
2026-04-21 22:24 25.23089 -80.89605 14590 ft 322 kts
2026-04-21 22:24 25.25283 -80.89106 14233 ft 321 kts
2026-04-21 22:24 25.26765 -80.88769 13971 ft 321 kts 10°
2026-04-21 22:25 25.28948 -80.88268 13568 ft 320 kts
2026-04-21 22:25 25.31124 -80.87774 13186 ft 318 kts
2026-04-21 22:25 25.33249 -80.87292 12780 ft 304 kts
2026-04-21 22:25 25.35277 -80.86832 12438 ft 292 kts
2026-04-21 22:26 25.37196 -80.86394 12116 ft 278 kts
2026-04-21 22:26 25.39067 -80.85922 11796 ft 268 kts 16°
2026-04-21 22:26 25.40804 -80.85120 11536 ft 275 kts 22°
2026-04-21 22:26 25.42601 -80.84246 11247 ft 292 kts 20°
2026-04-21 22:27 25.44514 -80.83357 11039 ft 301 kts 21°
2026-04-21 22:27 25.46450 -80.82535 10670 ft 293 kts 17°
2026-04-21 22:27 25.48340 -80.81828 10351 ft 282 kts 15°
2026-04-21 22:27 25.50176 -80.81156 10030 ft 272 kts 15°
2026-04-21 22:28 25.51948 -80.80503 9707 ft 266 kts 16°
2026-04-21 22:28 25.53705 -80.79852 9442 ft 275 kts 17°
2026-04-21 22:28 25.55534 -80.79169 9107 ft 279 kts 17°
2026-04-21 22:28 25.57389 -80.78471 8795 ft 277 kts 17°
2026-04-21 22:29 25.59178 -80.77797 8492 ft 274 kts 18°
2026-04-21 22:29 25.60976 -80.77118 8176 ft 272 kts 18°
2026-04-21 22:29 25.62755 -80.76446 7883 ft 269 kts 19°
2026-04-21 22:29 25.64392 -80.75555 7560 ft 261 kts 41°
2026-04-21 22:30 25.65516 -80.74012 7297 ft 258 kts 60°
2026-04-21 22:30 25.66368 -80.72256 7024 ft 260 kts 61°
2026-04-21 22:30 25.67219 -80.70470 6728 ft 263 kts 61°
2026-04-21 22:30 25.68068 -80.68683 6408 ft 261 kts 61°
2026-04-21 22:31 25.68924 -80.66884 6115 ft 259 kts 62°
2026-04-21 22:31 25.69753 -80.65146 5827 ft 257 kts 62°
2026-04-21 22:31 25.70572 -80.63429 5507 ft 243 kts 61°
2026-04-21 22:31 25.71349 -80.61804 5250 ft 236 kts 61°
2026-04-21 22:32 25.72122 -80.60188 4992 ft 233 kts 61°
2026-04-21 22:32 25.72865 -80.58637 4723 ft 229 kts 62°
2026-04-21 22:32 25.73611 -80.57081 4451 ft 227 kts 62°
2026-04-21 22:32 25.74334 -80.55570 4195 ft 214 kts 62°
2026-04-21 22:33 25.75006 -80.54170 3942 ft 201 kts 62°
2026-04-21 22:33 25.75655 -80.52814 3789 ft 196 kts 62°
2026-04-21 22:33 25.76282 -80.51503 3547 ft 189 kts 62°
2026-04-21 22:33 25.76885 -80.50244 3347 ft 180 kts 62°
2026-04-21 22:34 25.77441 -80.49080 3131 ft 160 kts 63°
2026-04-21 22:34 25.77707 -80.47956 2911 ft 143 kts 81°
2026-04-21 22:34 25.77876 -80.46850 2781 ft 148 kts 78°
2026-04-21 22:34 25.77984 -80.45780 2565 ft 131 kts 81°
2026-04-21 22:35 25.78045 -80.44791 2446 ft 132 kts 82°
2026-04-21 22:35 25.78094 -80.43808 2212 ft 118 kts 82°
2026-04-21 22:35 25.78133 -80.42921 2116 ft 117 kts 82°
2026-04-21 22:35 25.78173 -80.42013 1929 ft 116 kts 83°
2026-04-21 22:36 25.78239 -80.40140 1577 ft 120 kts 84°
2026-04-21 22:36 25.78265 -80.39235 1410 ft 113 kts 84°
2026-04-21 22:36 25.78287 -80.38382 1321 ft 110 kts 81°
2026-04-21 22:37 25.78340 -80.37521 1189 ft 114 kts 81°
2026-04-21 22:37 25.78389 -80.36646 1031 ft 115 kts 82°
2026-04-21 22:37 25.78419 -80.35769 906 ft 109 kts 82°
2026-04-21 22:37 25.78455 -80.34933 745 ft 115 kts 82°
2026-04-21 22:38 25.78518 -80.33997 584 ft 123 kts 85°
2026-04-21 22:38 25.78536 -80.33030 361 ft 129 kts 84°
2026-04-21 22:38 25.78579 -80.32012 254 ft 135 kts 82°
2026-04-21 22:38 25.78631 -80.30958 45 ft 134 kts 84°
2026-04-21 22:39 25.78674 -80.30049 18 ft 102 kts 88°
2026-04-21 22:39 25.78698 -80.29389 19 ft 72 kts 86°
2026-04-21 22:39 25.78718 -80.28871 19 ft 61 kts 87°
2026-04-21 22:39 25.78750 -80.28544 19 ft 30 kts 68°
2026-04-21 22:40 25.78853 -80.28389 20 ft 8 kts 51°
2026-04-21 22:40 25.78877 -80.28355 21 ft 11 kts 51°
2026-04-21 22:40 25.78951 -80.28256 22 ft 18 kts 45°
2026-04-21 22:40 25.79036 -80.28270 22 ft 13 kts 300°
2026-04-21 22:41 25.79083 -80.28362 20 ft 16 kts 300°
2026-04-21 22:41 25.79153 -80.28473 19 ft 19 kts 306°
2026-04-21 22:41 25.79228 -80.28612 19 ft 22 kts 300°
2026-04-21 22:41 25.79301 -80.28758 19 ft 14 kts 300°
2026-04-21 22:42 25.79391 -80.28801 19 ft 15 kts 355°
2026-04-21 22:42 25.79499 -80.28808 19 ft 16 kts 354°
2026-04-21 22:42 25.79610 -80.28811 19 ft 16 kts 358°
2026-04-21 22:42 25.79719 -80.28816 19 ft 16 kts 354°
2026-04-21 22:43 25.79829 -80.28823 19 ft 16 kts 360°
2026-04-21 22:43 25.79929 -80.28791 21 ft 16 kts 56°
2026-04-21 22:43 25.79939 -80.28671 20 ft 16 kts 88°
2026-04-21 22:43 25.79945 -80.28537 19 ft 19 kts 88°
2026-04-21 22:44 25.79952 -80.28366 19 ft 26 kts 87°
2026-04-21 22:44 25.79959 -80.28167 19 ft 26 kts 86°
2026-04-21 22:44 25.79968 -80.27968 19 ft 26 kts 88°
2026-04-21 22:44 25.79976 -80.27769 19 ft 26 kts 87°
2026-04-21 22:45 25.79984 -80.27570 19 ft 26 kts 88°
2026-04-21 22:45 25.79992 -80.27377 20 ft 24 kts 88°
2026-04-21 22:45 25.79999 -80.27208 20 ft 14 kts 88°
2026-04-21 22:45 25.79990 -80.27104 22 ft 14 kts 120°
2026-04-21 22:46 25.79927 -80.27028 20 ft 14 kts 144°
2026-04-21 22:46 25.79849 -80.27026 20 ft 8 kts 218°
2026-04-21 22:46 25.79843 -80.27067 20 ft 5 kts 278°
2026-04-21 22:46 25.79850 -80.27100 22 ft 3 kts 285°
2026-04-21 22:47 25.79851 -80.27104 21 ft 0 kts 286°